Location: Boursonne
(49.2024°N, 3.0468°E)
Time: 08:49:47
(UTC+00:00)

Cosmos 2219 Rocket - Pass Details

Date: 03 March 2021
Orbit: 826 x 848 km, 71.0° (Epoch: 12 April)

Event Time Altitude Azimuth Distance (km) Brightness Sun altitude
Rises 19:24:18 0° 185° (S) 3,353 5.3 -18.7°
Reaches altitude 10° 19:26:48 10° 179° (S) 2,426 4.4 -19.1°
Maximum altitude 19:32:02 44° 109° (ESE) 1,140 2.4 -19.9°
Drops below altitude 10° 19:37:19 10° 39° (NE) 2,452 4.4 -20.7°
Sets 19:39:52 0° 33° (NNE) 3,394 5.2 -21.1°
